Orange, MA

11:50 PM EST on February 08, 2016 (GMT -0500)
Orange Municipal

Weather History for KORE - December, 2012

Change the Weather History Date:

Tuesday, December 4, 2012

  Actual Average Record
Temperature  
Mean Temperature 42 °F -  
Max Temperature 55 °F 38 °F 64 °F (1998)
Min Temperature 28 °F 20 °F 0 °F (2002)
Degree Days  
Heating Degree Days 24    
Moisture  
Dew Point 39 °F    
Average Humidity 96    
Maximum Humidity 100    
Minimum Humidity 88    
Precipitation  
Precipitation 0.06 in - - ()
Sea Level Pressure  
Sea Level Pressure 30.20 in    
Wind  
Wind Speed 2 mph (South)    
Max Wind Speed 12 mph    
Max Gust Speed 21 mph    
Visibility 3 miles    
Events Fog , Rain    
Averages and records for this station are not official NWS values.
T = Trace of Precipitation, MM = Missing Value Source: NWS Daily Summary

Daily Weather History Graph

Daily Weather History Graph

Search for Another Location

Airport or City:

Trip Planner

Search our weather history database for the weather conditions in past years. The results will help you decide how hot, cold, wet, or windy it might be!

Date:

Astronomy

Dec. 04, 2012 Rise Set
Actual Time 7:02 AM EST 4:16 PM EST
Civil Twilight 6:31 AM EST 4:47 PM EST
Nautical Twilight 5:56 AM EST 5:23 PM EST
Astronomical Twilight 5:21 AM EST 5:57 PM EST
Moon 10:05 PM EST (12/4) 10:51 AM EST (12/4)
Length of Visible Light 10h 16m
Length of Day
9h 13m
Waning Gibbous, 69% of the Moon is Illuminated
Dec 4
Waning Gibbous
Dec 6
Last Quarter
Dec 13
New
Dec 20
First Quarter
Dec 28
Full

Hourly Weather History & Observations

Time (EST) Temp. Windchill Dew Point Humidity Pressure Visibility Wind Dir Wind Speed Gust Speed Precip Events Conditions
12:52 AM 30.0 °F - 30.0 °F 100% 30.30 in 0.2 mi Calm Calm - N/A Fog Light Freezing Fog
1:52 AM 30.0 °F - 28.9 °F 96% 30.31 in 0.2 mi Calm Calm - N/A Fog Light Freezing Fog
2:52 AM 28.9 °F - 28.9 °F 100% 30.30 in 0.5 mi Calm Calm - N/A Fog Light Freezing Fog
3:52 AM 28.0 °F 24.2 °F 28.0 °F 100% 30.32 in 0.8 mi NNW 3.5 mph - N/A   Mist
4:07 AM 28.4 °F - 28.4 °F 100% 30.29 in 1.2 mi Calm Calm - N/A   Overcast
4:09 AM 28.4 °F - 28.4 °F 100% 30.30 in 2.0 mi Calm Calm - N/A   Overcast
4:21 AM 28.4 °F - 28.4 °F 100% 30.29 in 1.5 mi Calm Calm - N/A   Overcast
4:33 AM 28.4 °F - 28.4 °F 100% 30.29 in 3.0 mi Calm Calm - N/A   Overcast
4:52 AM 28.9 °F - 28.0 °F 96% 30.30 in 7.0 mi Calm Calm - N/A   Overcast
5:52 AM 30.0 °F - 28.9 °F 96% 30.31 in 7.0 mi Calm Calm - N/A   Overcast
6:52 AM 30.9 °F - 30.0 °F 96% 30.31 in 9.0 mi Calm Calm - N/A   Overcast
7:52 AM 32.0 °F - 30.9 °F 96% 30.30 in 6.0 mi Calm Calm - N/A   Overcast
8:52 AM 33.1 °F - 32.0 °F 96% 30.30 in 7.0 mi Calm Calm - N/A   Overcast
9:52 AM 35.1 °F - 33.1 °F 92% 30.30 in 6.0 mi Calm Calm - N/A   Overcast
10:06 AM 35.6 °F - 33.8 °F 93% 30.27 in 2.0 mi Calm Calm - 0.04 in Rain Rain
10:23 AM 35.6 °F - 35.6 °F 100% 30.26 in 5.0 mi Calm Calm - 0.04 in Rain Light Rain
10:52 AM 36.0 °F - 35.1 °F 97% 30.28 in 5.0 mi Calm Calm - 0.04 in   Overcast
11:23 AM 37.4 °F - 35.6 °F 93% 30.24 in 2.5 mi Calm Calm - N/A   Overcast
11:47 AM 37.4 °F - 37.4 °F 100% 30.23 in 1.8 mi Calm Calm - N/A   Overcast
11:52 AM 37.9 °F - 37.0 °F 97% 30.25 in 2.0 mi Calm Calm - N/A   Overcast
12:27 PM 37.4 °F - 37.4 °F 100% 30.21 in 3.0 mi Calm Calm - N/A   Overcast
12:52 PM 39.0 °F - 37.9 °F 96% 30.22 in 2.5 mi Calm Calm - N/A   Overcast
1:31 PM 39.2 °F - 39.2 °F 100% 30.18 in 1.5 mi Calm Calm - N/A   Overcast
1:52 PM 41.0 °F - 39.9 °F 96% 30.19 in 1.5 mi Calm Calm - N/A   Overcast
2:00 PM 41.0 °F - 39.2 °F 93% 30.17 in 1.0 mi Calm Calm - N/A   Overcast
2:09 PM 41.0 °F - 39.2 °F 93% 30.17 in 0.8 mi Calm Calm - 0.02 in   Mist
2:47 PM 42.8 °F - 41.0 °F 93% 30.16 in 0.2 mi Calm Calm - 0.02 in Fog Fog
2:52 PM 42.1 °F - 41.0 °F 96% 30.18 in 0.2 mi Calm Calm - 0.02 in Fog Fog
3:52 PM 43.0 °F - 42.1 °F 97% 30.16 in 0.2 mi Calm Calm - N/A Fog Fog
4:52 PM 48.0 °F - 48.0 °F 100% 30.15 in 1.0 mi SSW 9.2 mph - N/A   Overcast
5:01 PM 48.2 °F - 48.2 °F 100% 30.13 in 1.5 mi South 8.1 mph - N/A   Overcast
5:16 PM 48.2 °F - 48.2 °F 100% 30.12 in 2.0 mi South 11.5 mph - N/A   Overcast
5:39 PM 50.0 °F - 48.2 °F 94% 30.11 in 3.0 mi South 10.4 mph - N/A   Overcast
6:52 PM 52.0 °F - 51.1 °F 97% 30.10 in 5.0 mi South 9.2 mph - N/A   Overcast
7:00 PM 51.8 °F - 51.8 °F 100% 30.08 in 5.0 mi South 8.1 mph 20.7 mph N/A   Overcast
7:52 PM 53.1 °F - 52.0 °F 96% 30.06 in 6.0 mi South 10.4 mph - N/A   Overcast
8:52 PM 54.0 °F - 52.0 °F 93% 30.04 in 6.0 mi South 8.1 mph - N/A   Overcast
9:52 PM 54.0 °F - 52.0 °F 93% 30.01 in 7.0 mi South 9.2 mph - N/A   Overcast
10:52 PM 55.0 °F - 52.0 °F 89% 29.99 in 8.0 mi SSE 6.9 mph - N/A   Overcast
11:14 PM 55.4 °F - 51.8 °F 88% 29.96 in 8.0 mi South 6.9 mph - N/A   Overcast
11:52 PM 55.0 °F - 52.0 °F 89% 29.95 in 7.0 mi South 8.1 mph - N/A   Overcast